Radiation Dose at Monitoring Post of Fukushima Daini Nuclear Power Station
Date,Time,MP-1(microSv/h),MP-2(microSv/h),MP-3(microSv/h),MP-4(microSv/h),MP-5(microSv/h),MP-6(microSv/h),MP-7(microSv/h),Wind Direction,Wind Velocity(m/s),Rain
2022/02/21,00:00,0.156,0.141,0.223,0.215,0.220,0.124,0.080,west,9.9,No
2022/02/21,00:10,0.155,0.142,0.223,0.216,0.220,0.124,0.079,west-northwest,10.9,No
2022/02/21,00:20,0.155,0.140,0.223,0.216,0.222,0.123,0.080,west-northwest,11.0,No
2022/02/21,00:30,0.155,0.142,0.223,0.216,0.220,0.123,0.079,west-northwest,7.7,No
2022/02/21,00:40,0.154,0.141,0.223,0.215,0.220,0.124,0.079,west,10.9,No
2022/02/21,00:50,0.155,0.142,0.222,0.215,0.220,0.124,0.078,west-northwest,7.9,No
2022/02/21,01:00,0.154,0.141,0.222,0.215,0.220,0.124,0.079,west,7.3,No
2022/02/21,01:10,0.155,0.141,0.223,0.214,0.220,0.123,0.078,west-northwest,7.0,No
2022/02/21,01:20,0.155,0.141,0.223,0.215,0.221,0.123,0.079,west,10.1,No
2022/02/21,01:30,0.154,0.142,0.222,0.215,0.220,0.123,0.078,west-northwest,7.8,No
2022/02/21,01:40,0.154,0.141,0.222,0.214,0.219,0.123,0.078,west-northwest,6.0,No
2022/02/21,01:50,0.154,0.141,0.222,0.215,0.219,0.123,0.078,west-northwest,9.6,No
2022/02/21,02:00,0.154,0.141,0.222,0.214,0.219,0.122,0.079,west-northwest,7.2,No
2022/02/21,02:10,0.153,0.142,0.222,0.214,0.219,0.123,0.078,west,6.8,No
2022/02/21,02:20,0.155,0.141,0.222,0.215,0.219,0.124,0.079,west-northwest,8.7,No
2022/02/21,02:30,0.154,0.141,0.222,0.214,0.220,0.123,0.078,west,8.6,No
2022/02/21,02:40,0.155,0.141,0.222,0.214,0.220,0.123,0.078,west-northwest,6.6,No
2022/02/21,02:50,0.153,0.141,0.223,0.213,0.219,0.123,0.077,west-northwest,5.8,No
2022/02/21,03:00,0.154,0.142,0.222,0.215,0.219,0.123,0.079,west,7.9,No
2022/02/21,03:10,0.153,0.142,0.222,0.214,0.219,0.123,0.078,west-northwest,8.1,No
2022/02/21,03:20,0.154,0.141,0.222,0.214,0.219,0.123,0.078,west-northwest,8.9,No
2022/02/21,03:30,0.154,0.142,0.222,0.214,0.220,0.123,0.078,west-northwest,9.2,No
2022/02/21,03:40,0.155,0.141,0.222,0.214,0.218,0.123,0.079,west,10.3,No
2022/02/21,03:50,0.154,0.141,0.222,0.215,0.218,0.123,0.079,west-northwest,9.4,No
2022/02/21,04:00,0.154,0.141,0.222,0.214,0.220,0.124,0.078,west-northwest,9.2,No
2022/02/21,04:10,0.155,0.141,0.223,0.214,0.218,0.123,0.078,northwest,7.0,No
2022/02/21,04:20,0.153,0.142,0.222,0.215,0.218,0.123,0.079,west,10.9,No
2022/02/21,04:30,0.154,0.141,0.222,0.214,0.219,0.123,0.078,west,7.6,No
2022/02/21,04:40,0.154,0.141,0.223,0.215,0.219,0.123,0.078,west-northwest,9.5,No
2022/02/21,04:50,0.154,0.141,0.223,0.214,0.219,0.123,0.078,west,9.0,No
2022/02/21,05:00,0.155,0.141,0.223,0.216,0.219,0.123,0.078,west,11.9,No
2022/02/21,05:10,0.154,0.141,0.222,0.215,0.218,0.124,0.078,west-northwest,10.9,No
2022/02/21,05:20,0.154,0.141,0.222,0.215,0.218,0.123,0.079,west,10.6,No
2022/02/21,05:30,0.154,0.140,0.223,0.214,0.220,0.123,0.079,west,8.9,No
2022/02/21,05:40,0.155,0.141,0.222,0.215,0.219,0.123,0.078,west-northwest,8.8,No
2022/02/21,05:50,0.154,0.140,0.222,0.215,0.219,0.123,0.078,west-northwest,8.9,No
2022/02/21,06:00,0.154,0.141,0.222,0.215,0.220,0.123,0.078,west,12.4,No
2022/02/21,06:10,0.154,0.141,0.222,0.214,0.219,0.123,0.078,west-northwest,10.4,No
2022/02/21,06:20,0.154,0.141,0.222,0.213,0.219,0.122,0.078,west,9.0,No
2022/02/21,06:30,0.154,0.141,0.222,0.214,0.219,0.123,0.078,west,11.1,No
2022/02/21,06:40,0.154,0.142,0.224,0.214,0.218,0.123,0.079,west-northwest,11.5,No
2022/02/21,06:50,0.154,0.141,0.221,0.213,0.220,0.123,0.078,west,11.1,No
2022/02/21,07:00,0.154,0.141,0.222,0.214,0.219,0.122,0.078,west,15.2,No
2022/02/21,07:10,0.154,0.140,0.221,0.214,0.219,0.124,0.078,west,13.5,No
2022/02/21,07:20,0.154,0.141,0.222,0.214,0.220,0.122,0.079,west,11.2,No
2022/02/21,07:30,0.154,0.141,0.221,0.215,0.219,0.124,0.078,west,12.6,No
2022/02/21,07:40,0.153,0.141,0.222,0.214,0.219,0.123,0.078,west,12.9,No
2022/02/21,07:50,0.154,0.141,0.222,0.213,0.219,0.123,0.078,west-northwest,16.3,No
2022/02/21,08:00,0.154,0.140,0.222,0.213,0.220,0.123,0.078,west,13.8,No
2022/02/21,08:10,0.154,0.141,0.222,0.212,0.218,0.124,0.078,west,15.6,No
2022/02/21,08:20,0.155,0.140,0.223,0.213,0.219,0.123,0.078,west-northwest,13.2,No
2022/02/21,08:30,0.155,0.141,0.222,0.214,0.219,0.122,0.079,west-northwest,12.5,No
2022/02/21,08:40,0.155,0.141,0.223,0.214,0.220,0.123,0.078,west,13.7,No
2022/02/21,08:50,0.154,0.142,0.222,0.214,0.220,0.123,0.078,west,12.7,No
2022/02/21,09:00,0.155,0.141,0.222,0.213,0.219,0.123,0.078,west,12.9,No
2022/02/21,09:10,0.154,0.140,0.222,0.215,0.219,0.123,0.078,west-northwest,11.5,No
2022/02/21,09:20,0.154,0.142,0.222,0.214,0.219,0.122,0.078,west,15.0,No
2022/02/21,09:30,0.155,0.140,0.222,0.214,0.220,0.123,0.077,west,13.2,No
2022/02/21,09:40,0.155,0.141,0.221,0.214,0.219,0.123,0.078,west,12.8,No
2022/02/21,09:50,0.154,0.140,0.221,0.214,0.220,0.123,0.078,west,12.9,No
2022/02/21,10:00,0.153,0.141,0.222,0.214,0.220,0.123,0.078,west-northwest,13.5,No
2022/02/21,10:10,0.154,0.140,0.223,0.214,0.220,0.123,0.078,west-northwest,11.3,No
2022/02/21,10:20,0.155,0.141,0.222,0.214,0.219,0.122,0.078,west,12.4,No
2022/02/21,10:30,0.154,0.141,0.222,0.213,0.220,0.124,0.078,west-northwest,11.4,No
2022/02/21,10:40,0.153,0.142,0.221,0.214,0.220,0.122,0.078,west-northwest,14.3,No
2022/02/21,10:50,0.153,0.141,0.222,0.214,0.221,0.123,0.078,west-northwest,14.1,No
2022/02/21,11:00,0.154,0.141,0.222,0.214,0.219,0.122,0.078,west,16.7,No
2022/02/21,11:10,0.155,0.141,0.222,0.214,0.221,0.123,0.079,west-northwest,15.2,No
2022/02/21,11:20,0.154,0.141,0.223,0.214,0.220,0.122,0.078,west,12.3,No
2022/02/21,11:30,0.155,0.140,0.221,0.215,0.220,0.123,0.078,west-northwest,11.9,No
2022/02/21,11:40,0.154,0.141,0.222,0.214,0.221,0.123,0.078,west,13.8,No
2022/02/21,11:50,0.155,0.141,0.223,0.213,0.220,0.123,0.078,west-northwest,9.8,No
2022/02/21,12:00,0.154,0.141,0.222,0.214,0.219,0.123,0.078,west,16.3,No
2022/02/21,12:10,0.154,0.141,0.222,0.214,0.221,0.123,0.077,west-northwest,11.7,No
2022/02/21,12:20,0.154,0.141,0.223,0.215,0.220,0.123,0.078,west-northwest,13.1,No
2022/02/21,12:30,0.155,0.141,0.223,0.215,0.219,0.123,0.078,west,10.9,No
2022/02/21,12:40,0.155,0.141,0.224,0.216,0.221,0.123,0.078,west,8.9,Yes
2022/02/21,12:50,0.156,0.142,0.222,0.214,0.220,0.124,0.079,west-northwest,10.2,Yes
2022/02/21,13:00,0.155,0.142,0.224,0.215,0.220,0.122,0.078,west-northwest,14.4,No
2022/02/21,13:10,0.155,0.141,0.223,0.215,0.221,0.124,0.078,west,10.8,No
2022/02/21,13:20,0.155,0.141,0.222,0.214,0.220,0.124,0.078,northwest,11.8,Yes
2022/02/21,13:30,0.155,0.142,0.224,0.215,0.220,0.123,0.078,west-northwest,11.0,No
2022/02/21,13:40,0.155,0.142,0.224,0.215,0.220,0.123,0.079,west-northwest,8.4,No
2022/02/21,13:50,0.154,0.141,0.223,0.216,0.221,0.124,0.078,west-northwest,9.8,No
2022/02/21,14:00,0.155,0.142,0.223,0.215,0.220,0.123,0.078,west,6.8,No
2022/02/21,14:10,0.155,0.142,0.223,0.217,0.221,0.123,0.078,west-northwest,9.3,No
2022/02/21,14:20,0.154,0.141,0.224,0.215,0.219,0.124,0.078,west,12.2,No
2022/02/21,14:30,0.154,0.141,0.222,0.215,0.220,0.124,0.079,west,10.2,No
2022/02/21,14:40,0.155,0.141,0.224,0.215,0.222,0.124,0.078,west,10.1,No
2022/02/21,14:50,0.155,0.142,0.224,0.216,0.221,0.124,0.078,west-northwest,10.5,No
2022/02/21,15:00,0.154,0.142,0.226,0.216,0.222,0.124,0.079,west,11.4,No
2022/02/21,15:10,0.155,0.142,0.224,0.216,0.223,0.124,0.078,west-northwest,7.6,No
2022/02/21,15:20,0.155,0.142,0.225,0.216,0.221,0.124,0.079,northwest,7.9,No
2022/02/21,15:30,0.154,0.141,0.223,0.217,0.221,0.123,0.078,west-northwest,6.7,No
2022/02/21,15:40,0.155,0.143,0.226,0.216,0.222,0.123,0.078,west-northwest,9.0,Yes
2022/02/21,15:50,0.154,0.142,0.224,0.216,0.221,0.123,0.078,west-northwest,9.4,Yes
2022/02/21,16:00,0.155,0.142,0.225,0.216,0.222,0.124,0.079,west-northwest,8.3,Yes
2022/02/21,16:10,0.157,0.142,0.224,0.215,0.222,0.124,0.079,west-northwest,9.6,No
2022/02/21,16:20,0.155,0.143,0.224,0.216,0.221,0.124,0.078,west-northwest,10.1,No
2022/02/21,16:30,0.155,0.143,0.224,0.217,0.221,0.124,0.079,west-northwest,11.3,No
2022/02/21,16:40,0.155,0.142,0.224,0.216,0.221,0.124,0.079,west-northwest,9.0,No
2022/02/21,16:50,0.156,0.142,0.224,0.217,0.220,0.123,0.079,northwest,9.1,No
2022/02/21,17:00,0.156,0.143,0.224,0.215,0.222,0.124,0.078,west-northwest,5.7,No
2022/02/21,17:10,0.156,0.143,0.224,0.216,0.220,0.124,0.078,west-northwest,6.3,No
2022/02/21,17:20,0.155,0.142,0.225,0.217,0.221,0.125,0.079,northwest,8.5,No
2022/02/21,17:30,0.155,0.142,0.224,0.215,0.221,0.124,0.079,west-northwest,8.3,No
2022/02/21,17:40,0.156,0.143,0.225,0.217,0.221,0.124,0.079,west-northwest,10.7,No
2022/02/21,17:50,0.156,0.143,0.225,0.217,0.220,0.124,0.079,northwest,10.1,No
2022/02/21,18:00,0.155,0.141,0.224,0.216,0.222,0.124,0.078,west-northwest,11.1,No
2022/02/21,18:10,0.156,0.143,0.225,0.217,0.221,0.124,0.078,northwest,7.6,No
2022/02/21,18:20,0.156,0.143,0.226,0.217,0.221,0.123,0.079,west-northwest,6.6,No
2022/02/21,18:30,0.156,0.142,0.224,0.217,0.221,0.123,0.078,northwest,6.5,No
2022/02/21,18:40,0.155,0.142,0.226,0.217,0.221,0.124,0.079,northwest,4.3,No
2022/02/21,18:50,0.156,0.143,0.225,0.216,0.221,0.123,0.079,northwest,4.0,No
2022/02/21,19:00,0.157,0.143,0.224,0.217,0.220,0.123,0.079,north-northwest,4.3,No
2022/02/21,19:10,0.155,0.143,0.225,0.216,0.221,0.124,0.079,northwest,2.4,No
2022/02/21,19:20,0.156,0.142,0.227,0.218,0.222,0.124,0.078,west-northwest,3.2,No
2022/02/21,19:30,0.156,0.143,0.225,0.216,0.221,0.123,0.079,west-northwest,4.1,No
2022/02/21,19:40,0.156,0.143,0.224,0.216,0.222,0.124,0.079,west-northwest,6.9,No
2022/02/21,19:50,0.155,0.142,0.225,0.216,0.221,0.125,0.079,west,7.5,No
2022/02/21,20:00,0.155,0.141,0.225,0.216,0.221,0.123,0.079,west,6.1,No
2022/02/21,20:10,0.156,0.143,0.225,0.217,0.221,0.123,0.079,west-northwest,5.9,No
2022/02/21,20:20,0.155,0.143,0.224,0.217,0.221,0.124,0.079,west-northwest,6.9,No
2022/02/21,20:30,0.156,0.142,0.224,0.217,0.221,0.124,0.079,west-northwest,5.5,No
2022/02/21,20:40,0.156,0.142,0.224,0.217,0.221,0.123,0.079,west-northwest,5.2,No
2022/02/21,20:50,0.156,0.143,0.224,0.218,0.220,0.123,0.079,west-northwest,3.5,No
2022/02/21,21:00,0.157,0.143,0.224,0.217,0.221,0.123,0.079,north-northwest,2.4,No
2022/02/21,21:10,0.156,0.143,0.224,0.218,0.221,0.124,0.078,north,2.4,No
2022/02/21,21:20,0.156,0.143,0.225,0.217,0.220,0.124,0.078,north,2.2,No
2022/02/21,21:30,0.156,0.142,0.225,0.216,0.222,0.124,0.079,north-northeast,2.1,No
2022/02/21,21:40,0.156,0.143,0.225,0.217,0.221,0.124,0.079,north-northeast,1.8,No
2022/02/21,21:50,0.156,0.142,0.225,0.218,0.221,0.124,0.079,north,1.0,No
2022/02/21,22:00,0.156,0.143,0.225,0.218,0.220,0.124,0.079,southeast,0.7,No
2022/02/21,22:10,0.155,0.143,0.225,0.217,0.221,0.123,0.079,west-southwest,0.7,No
2022/02/21,22:20,0.155,0.143,0.224,0.217,0.221,0.124,0.079,west-southwest,2.2,No
2022/02/21,22:30,0.155,0.142,0.225,0.218,0.221,0.124,0.078,west-northwest,6.0,No
2022/02/21,22:40,0.155,0.142,0.225,0.217,0.221,0.123,0.079,west,6.2,No
2022/02/21,22:50,0.156,0.143,0.225,0.216,0.221,0.125,0.078,west-northwest,8.2,No
2022/02/21,23:00,0.155,0.143,0.224,0.217,0.222,0.123,0.079,west-northwest,9.6,No
2022/02/21,23:10,0.156,0.142,0.224,0.216,0.221,0.123,0.079,west,9.8,No
2022/02/21,23:20,0.156,0.143,0.224,0.217,0.221,0.124,0.079,west-northwest,8.5,No
2022/02/21,23:30,0.155,0.143,0.223,0.216,0.220,0.125,0.078,west-northwest,7.5,No
2022/02/21,23:40,0.155,0.143,0.223,0.215,0.221,0.123,0.079,west-northwest,7.0,No
2022/02/21,23:50,0.155,0.142,0.225,0.216,0.221,0.124,0.079,west-northwest,8.9,No
